Terminal Aerodrome Forecast
Issued by NWS

Home | Current Version | Previous Version | Text Only | Print | Product List | Glossary On
Versions: 1 2 3 4 5 6 7 8 9 10 11 12 13 14
000
FTAK31 PAJN 061143
TAFAPG
TAF
PAPG 061143Z 0612/0712 00000KT P6SM -RA BKN035 OVC050
     FM061500 12004KT 5SM RA BR SCT006 SCT015 OVC025
     FM061900 12005KT 4SM +RA BR BKN015 OVC030
     FM070100 20008KT 6SM -RA BR SCT006 OVC025
     FM070400 20006KT P6SM -SHRA SCT006 OVC035
     FM070700 VRB03KT P6SM -SHRA BKN035 OVC060
      AMD NOT SKED=

USA.gov is the U.S. government's official web portal to all federal, state and local government web resources and services.